Weather History for Orr, MN

Change the Weather History Date:

Wednesday, January 2, 2013

  Actual Average Record
Temperature  
Mean Temperature 18 °F -  
Max Temperature 21 °F 14 °F 39 °F (1997)
Min Temperature 14 °F 0 °F -38 °F (2014)
Degree Days  
Heating Degree Days 48    
Moisture  
Dew Point 16 °F    
Average Humidity 88    
Maximum Humidity 93    
Minimum Humidity 86    
Precipitation  
Precipitation 0.00 in - - ()
Sea Level Pressure  
Sea Level Pressure 29.85 in    
Wind  
Wind Speed 5 mph (South)    
Max Wind Speed 9 mph    
Max Gust Speed -    
Visibility 8 miles    
Events Snow    
Averages and records for this station are not official NWS values.
T = Trace of Precipitation, MM = Missing Value Source: NWS Daily Summary

Daily Weather History Graph

Daily Weather History Graph

Search for Another Location

Airport:

Trip Planner

Search our weather history database for the weather conditions in past years. The results will help you decide how hot, cold, wet, or windy it might be!

Date:

Astronomy

Jan. 02, 2013 Rise Set
Actual Time 8:01 AM CST 4:30 PM CST
Civil Twilight 7:25 AM CST 5:06 PM CST
Nautical Twilight 6:45 AM CST 5:45 PM CST
Astronomical Twilight 6:08 AM CST 6:23 PM CST
Moon 10:30 PM CST (1/2) 10:18 AM CST (1/2)
Length of Visible Light 9h 41m
Length of Day
8h 29m
Waning Gibbous, 75% of the Moon is Illuminated
Jan 2
Waning Gibbous
Jan 4
Last Quarter
Jan 11
New
Jan 18
First Quarter
Jan 26
Full

Hourly Weather History & Observations

Time (CST) Temp. Windchill Dew Point Humidity Pressure Visibility Wind Dir Wind Speed Gust Speed Precip Events Conditions
12:13 AM 14.0 °F 2.0 °F 10.4 °F 86% 29.83 in 7.0 mi South 9.2 mph - N/A   Overcast
12:33 AM 14.0 °F 5.1 °F 10.4 °F 86% 29.82 in 7.0 mi SSW 5.8 mph - N/A   Overcast
12:53 AM 15.8 °F 6.1 °F 12.2 °F 86% 29.82 in 7.0 mi South 6.9 mph - N/A   Overcast
1:14 AM 15.8 °F 10.2 °F 12.2 °F 86% 29.82 in 7.0 mi South 3.5 mph - N/A   Overcast
1:33 AM 15.8 °F 6.1 °F 12.2 °F 86% 29.82 in 7.0 mi South 6.9 mph - N/A   Overcast
1:53 AM 15.8 °F 10.2 °F 12.2 °F 86% 29.81 in 7.0 mi South 3.5 mph - N/A   Overcast
2:13 AM 15.8 °F 8.6 °F 12.2 °F 86% 29.82 in 7.0 mi South 4.6 mph - N/A   Overcast
2:33 AM 15.8 °F 7.2 °F 12.2 °F 86% 29.82 in 7.0 mi South 5.8 mph - N/A   Mostly Cloudy
2:53 AM 15.8 °F 5.1 °F 12.2 °F 86% 29.81 in 10.0 mi South 8.1 mph - N/A   Overcast
3:13 AM 15.8 °F 7.2 °F 12.2 °F 86% 29.81 in 10.0 mi South 5.8 mph - N/A   Overcast
3:33 AM 15.8 °F 8.6 °F 12.2 °F 86% 29.80 in 10.0 mi South 4.6 mph - N/A   Overcast
3:53 AM 15.8 °F 8.6 °F 14.0 °F 93% 29.81 in 10.0 mi South 4.6 mph - N/A   Overcast
4:13 AM 17.6 °F 10.7 °F 14.0 °F 86% 29.81 in 10.0 mi South 4.6 mph - N/A   Mostly Cloudy
4:33 AM 17.6 °F 12.3 °F 14.0 °F 86% 29.80 in 10.0 mi South 3.5 mph - N/A   Mostly Cloudy
4:53 AM 17.6 °F 12.3 °F 14.0 °F 86% 29.81 in 10.0 mi South 3.5 mph - N/A   Mostly Cloudy
5:13 AM 17.6 °F 10.7 °F 14.0 °F 86% 29.80 in 10.0 mi SSE 4.6 mph - N/A   Overcast
5:33 AM 17.6 °F 9.3 °F 14.0 °F 86% 29.80 in 10.0 mi SSE 5.8 mph - N/A   Overcast
5:53 AM 17.6 °F 9.3 °F 15.8 °F 93% 29.80 in 10.0 mi SSE 5.8 mph - N/A   Overcast
6:13 AM 17.6 °F 8.2 °F 15.8 °F 93% 29.80 in 10.0 mi South 6.9 mph - N/A   Overcast
6:34 AM 17.6 °F 9.3 °F 15.8 °F 93% 29.81 in 10.0 mi South 5.8 mph - N/A   Overcast
6:53 AM 17.6 °F 10.7 °F 15.8 °F 93% 29.80 in 10.0 mi SSE 4.6 mph - N/A   Overcast
7:13 AM 17.6 °F 8.2 °F 15.8 °F 93% 29.80 in 7.0 mi South 6.9 mph - N/A   Overcast
7:33 AM 17.6 °F 9.3 °F 15.8 °F 93% 29.80 in 5.0 mi SSE 5.8 mph - N/A   Overcast
7:53 AM 17.6 °F 9.3 °F 15.8 °F 93% 29.80 in 5.0 mi SSE 5.8 mph - N/A Snow Light Snow
8:13 AM 17.6 °F 10.7 °F 15.8 °F 93% 29.80 in 4.0 mi SSE 4.6 mph - N/A Snow Light Snow
8:33 AM 17.6 °F 10.7 °F 15.8 °F 93% 29.81 in 5.0 mi SSE 4.6 mph - N/A   Overcast
9:13 AM 17.6 °F 12.3 °F 15.8 °F 93% 29.81 in 7.0 mi SSE 3.5 mph - N/A   Mostly Cloudy
9:33 AM 17.6 °F 10.7 °F 15.8 °F 93% 29.82 in 7.0 mi SE 4.6 mph - N/A   Mostly Cloudy
9:53 AM 19.4 °F 10.4 °F 15.8 °F 86% 29.82 in 7.0 mi SSE 6.9 mph - N/A   Scattered Clouds
10:13 AM 19.4 °F 9.5 °F 15.8 °F 86% 29.82 in 10.0 mi SSE 8.1 mph - N/A   Scattered Clouds
10:33 AM 19.4 °F 10.4 °F 15.8 °F 86% 29.83 in 10.0 mi SSE 6.9 mph - N/A   Mostly Cloudy
10:53 AM 19.4 °F 10.4 °F 15.8 °F 86% 29.84 in 7.0 mi South 6.9 mph - N/A   Mostly Cloudy
11:13 AM 19.4 °F 9.5 °F 15.8 °F 86% 29.84 in 7.0 mi SSE 8.1 mph - N/A   Mostly Cloudy
11:34 AM 19.4 °F 12.8 °F 15.8 °F 86% 29.84 in 7.0 mi SSE 4.6 mph - N/A   Mostly Cloudy
11:53 AM 19.4 °F 11.5 °F 15.8 °F 86% 29.83 in 4.0 mi SSE 5.8 mph - N/A   Mostly Cloudy
12:14 PM 19.4 °F 11.5 °F 15.8 °F 86% 29.83 in 3.0 mi SSE 5.8 mph - N/A   Scattered Clouds
12:34 PM 19.4 °F 14.3 °F 17.6 °F 93% 29.83 in 4.0 mi South 3.5 mph - N/A   Scattered Clouds
12:53 PM 19.4 °F 14.3 °F 17.6 °F 93% 29.83 in 2.5 mi SSE 3.5 mph - N/A   Scattered Clouds
1:13 PM 19.4 °F 14.3 °F 17.6 °F 93% 29.83 in 2.5 mi SSE 3.5 mph - N/A   Scattered Clouds
1:33 PM 19.4 °F 12.8 °F 17.6 °F 93% 29.83 in 4.0 mi SSE 4.6 mph - N/A   Scattered Clouds
1:53 PM 19.4 °F 12.8 °F 17.6 °F 93% 29.83 in 5.0 mi SSE 4.6 mph - N/A   Scattered Clouds
2:13 PM 21.2 °F 14.9 °F 17.6 °F 86% 29.83 in 5.0 mi SSE 4.6 mph - N/A Snow Light Snow
2:33 PM 21.2 °F 16.4 °F 17.6 °F 86% 29.83 in 2.5 mi South 3.5 mph - N/A Snow Light Snow
2:53 PM 21.2 °F - 17.6 °F 86% 29.84 in 7.0 mi Calm Calm - N/A Snow Light Snow
3:13 PM 21.2 °F - 17.6 °F 86% 29.85 in 7.0 mi Calm Calm - N/A Snow Light Snow
3:33 PM 21.2 °F 16.4 °F 17.6 °F 86% 29.85 in 7.0 mi SSE 3.5 mph - N/A Snow Light Snow
3:53 PM 21.2 °F - 17.6 °F 86% 29.86 in 10.0 mi Calm Calm - N/A   Scattered Clouds
4:13 PM 21.2 °F - 17.6 °F 86% 29.86 in 10.0 mi Calm Calm - N/A   Mostly Cloudy
4:33 PM 21.2 °F - 17.6 °F 86% 29.87 in 7.0 mi Calm Calm - N/A Snow Light Snow
4:53 PM 21.2 °F - 17.6 °F 86% 29.87 in 10.0 mi Calm Calm - N/A   Mostly Cloudy
5:13 PM 21.2 °F - 17.6 °F 86% 29.88 in 7.0 mi Calm Calm - N/A Snow Light Snow
5:33 PM 21.2 °F - 17.6 °F 86% 29.89 in 10.0 mi Calm Calm - N/A   Overcast
5:53 PM 21.2 °F - 17.6 °F 86% 29.90 in 10.0 mi Calm Calm - N/A   Overcast
6:13 PM 21.2 °F - 17.6 °F 86% 29.90 in 10.0 mi Calm Calm - N/A Snow Light Snow
6:33 PM 21.2 °F - 17.6 °F 86% 29.91 in 7.0 mi Calm Calm - N/A Snow Light Snow
6:54 PM 21.2 °F - 17.6 °F 86% 29.91 in 10.0 mi Calm Calm - N/A   Overcast
7:13 PM 21.2 °F - 17.6 °F 86% 29.92 in 7.0 mi Calm Calm - N/A Snow Light Snow
7:33 PM 21.2 °F 16.4 °F 17.6 °F 86% 29.92 in 5.0 mi WNW 3.5 mph - N/A Snow Light Snow
8:13 PM 21.2 °F 10.9 °F 17.6 °F 86% 29.93 in 7.0 mi NW 9.2 mph - N/A Snow Light Snow
8:33 PM 21.2 °F 12.6 °F 17.6 °F 86% 29.93 in 7.0 mi NW 6.9 mph - N/A Snow Light Snow
8:53 PM 19.4 °F 10.4 °F 17.6 °F 93% 29.94 in 10.0 mi NW 6.9 mph - N/A   Overcast
9:13 PM 19.4 °F 8.6 °F 17.6 °F 93% 29.94 in 10.0 mi NW 9.2 mph - N/A   Overcast
9:33 PM 19.4 °F 9.5 °F 17.6 °F 93% 29.94 in 10.0 mi NW 8.1 mph - N/A   Overcast
9:53 PM 19.4 °F 9.5 °F 15.8 °F 86% 29.95 in 10.0 mi NW 8.1 mph - N/A Snow Light Snow
10:13 PM 19.4 °F 11.5 °F 15.8 °F 86% 29.95 in 10.0 mi NW 5.8 mph - N/A   Overcast
10:33 PM 19.4 °F 9.5 °F 15.8 °F 86% 29.97 in 10.0 mi NW 8.1 mph - N/A   Overcast
10:53 PM 19.4 °F 8.6 °F 15.8 °F 86% 29.96 in 10.0 mi NW 9.2 mph - N/A   Overcast
11:13 PM 19.4 °F 10.4 °F 15.8 °F 86% 29.97 in 10.0 mi NW 6.9 mph - N/A Snow Light Snow
11:33 PM 17.6 °F 6.4 °F 15.8 °F 93% 29.98 in 10.0 mi NW 9.2 mph - N/A Snow Light Snow
11:53 PM 17.6 °F 6.4 °F 14.0 °F 86% 29.98 in 10.0 mi NW 9.2 mph - N/A   Overcast